period_start,C,m1,H,J0,J1,J2,J3,J4,J5,JA,JB,JC,JD,JJ,JK,JN,#
2015-07-23 00:00:37,0.01,0.11,0.00,24.00,27.57,29.97,4.72,23.60,1005.90,2037.98,3395.99,3202.39,3502.07,350.11,342.94,9.78,0000 0000 0000 0000 000000
2015-07-23 00:05:38,0.00,0.11,0.00,24.01,27.57,29.98,4.78,23.66,1005.89,2037.99,3396.00,3202.40,3502.07,350.38,343.07,9.81,0000 0000 0000 0000 000000
2015-07-23 00:10:40,0.00,0.11,0.00,24.00,27.57,29.96,4.63,23.53,1005.88,2037.99,3395.99,3202.21,3502.05,349.69,342.48,9.84,0000 0000 0000 0000 000000
2015-07-23 00:15:41,-0.00,0.11,0.00,24.00,27.56,29.96,4.79,23.59,1005.87,2037.99,3395.99,3202.32,3502.06,350.04,342.87,9.87,0000 0000 0000 0000 000000
2015-07-23 00:20:42,0.01,0.11,0.00,24.00,27.55,29.96,4.68,23.52,1005.88,2037.99,3395.99,3202.20,3502.02,350.01,342.71,9.90,0000 0000 0000 0000 000000
2015-07-23 00:25:43,-0.00,0.11,0.00,24.00,27.55,29.96,4.76,23.61,1005.87,2037.99,3395.99,3202.39,3502.04,350.10,342.67,9.93,0000 0000 0000 0000 000000
2015-07-23 00:30:44,-0.01,0.11,0.00,24.00,27.55,29.94,4.69,23.65,1005.87,2037.99,3395.99,3202.37,3502.05,349.87,343.02,9.96,0000 0000 0000 0000 000000
2015-07-23 00:35:46,0.01,0.11,0.00,24.00,27.55,29.97,4.70,23.63,1005.87,2037.99,3395.97,3202.25,3502.03,350.22,342.95,9.99,0000 0000 0000 0000 000000
2015-07-23 00:40:47,0.00,0.11,0.00,24.00,27.55,29.96,4.73,23.56,1005.87,2037.99,3395.97,3202.26,3502.02,350.38,343.23,10.02,0000 0000 0000 0000 000000
2015-07-23 00:45:48,-0.00,0.11,0.00,24.00,27.55,29.94,4.74,23.60,1005.87,2037.99,3395.97,3202.18,3502.03,350.26,343.10,10.05,0000 0000 0000 0000 000000
2015-07-23 00:50:49,0.00,0.11,0.00,23.99,27.55,29.98,4.71,23.75,1005.87,2038.00,3395.98,3202.27,3502.01,350.05,342.95,10.08,0000 0000 0000 0000 000000
2015-07-23 00:55:51,0.00,0.11,0.00,23.94,27.55,30.01,4.74,23.89,1005.86,2038.00,3395.97,3202.22,3502.01,350.08,343.17,10.10,0000 0000 0000 0000 000000
2015-07-23 01:00:52,0.00,0.11,0.00,23.89,27.54,30.09,4.78,23.85,1005.87,2038.00,3395.80,3202.17,3502.01,350.38,343.33,10.13,0000 0000 0000 0000 000000
2015-07-23 01:05:53,-0.01,0.11,0.00,23.82,27.52,30.16,4.72,23.69,1005.86,2038.00,3395.95,3202.46,3502.02,350.37,343.60,10.16,0000 0000 0000 0000 000000
2015-07-23 01:10:55,-0.02,0.11,0.00,23.77,27.52,30.18,4.61,23.69,1005.87,2038.00,3395.97,3202.71,3502.05,349.39,342.65,10.19,0000 0000 0000 0000 000000
2015-07-23 01:15:56,0.00,0.11,0.00,23.77,27.51,30.14,4.70,23.64,1005.87,2038.02,3395.98,3202.89,3502.08,350.40,343.85,10.22,0000 0000 0000 0000 000000
2015-07-23 01:20:57,0.01,0.11,0.00,23.80,27.50,30.07,4.67,23.51,1005.87,2038.01,3395.97,3202.85,3502.08,349.95,342.94,10.25,0000 0000 0000 0000 000000
2015-07-23 01:25:58,-0.01,0.11,0.00,23.81,27.50,30.10,4.61,23.64,1005.87,2038.03,3395.98,3202.92,3502.17,349.33,342.53,10.28,0000 0000 0000 0000 000000
2015-07-23 01:30:59,0.00,0.11,0.00,23.83,27.48,30.05,4.63,23.50,1005.85,2038.08,3395.98,3202.96,3502.27,349.84,343.03,10.31,0000 0000 0000 0000 000000
2015-07-23 01:36:00,0.01,0.11,0.00,23.84,27.47,30.02,4.66,23.60,1005.82,2038.09,3395.94,3202.95,3502.12,349.94,343.02,10.34,0000 0000 0000 0000 000000
2015-07-23 01:41:02,-0.00,0.11,0.00,23.86,27.47,29.96,4.67,23.54,1005.86,2038.06,3395.96,3202.97,3502.11,349.71,342.71,10.37,0000 0000 0000 0000 000000
2015-07-23 01:46:03,0.02,0.11,0.00,23.87,27.45,29.95,4.63,23.56,1005.86,2038.13,3395.96,3202.97,3502.19,349.48,342.56,10.40,0000 0000 0000 0000 000000
2015-07-23 01:51:04,0.01,0.11,0.00,23.90,27.45,29.89,4.67,23.57,1005.86,2038.20,3395.95,3202.96,3502.26,349.50,342.42,10.43,0000 0000 0000 0000 000000
2015-07-23 01:56:05,-0.01,0.11,0.00,23.89,27.45,29.90,4.68,23.65,1005.86,2038.10,3395.71,3202.88,3502.06,349.64,342.84,10.46,0000 0000 0000 0000 000000
2015-07-23 02:01:06,0.01,0.11,0.00,23.82,27.45,29.98,4.67,23.55,1005.87,2038.08,3395.30,3202.79,3502.03,350.29,343.00,10.49,0000 0000 0000 0000 000000
2015-07-23 02:06:07,0.03,0.11,0.00,23.77,27.44,30.01,4.78,23.58,1005.87,2038.35,3395.88,3202.96,3502.14,350.53,343.67,10.51,0000 0000 0000 0000 000000
2015-07-23 02:11:09,-0.01,0.11,0.00,23.77,27.42,29.98,4.90,23.66,1005.87,2038.38,3395.82,3202.96,3502.07,351.24,344.36,10.54,0000 0000 0000 0000 000000
2015-07-23 02:16:10,0.05,0.11,0.00,23.79,27.42,29.96,4.82,23.89,1005.87,2038.59,3395.74,3202.94,3502.08,350.26,343.45,10.57,0000 0000 0000 0000 000000
2015-07-23 02:21:11,0.00,0.11,0.00,23.80,27.42,29.94,4.62,23.73,1005.87,2038.69,3395.82,3202.98,3502.11,350.12,343.26,10.60,0000 0000 0000 0000 000000
2015-07-23 02:26:13,0.02,0.11,0.00,23.82,27.42,29.92,4.73,23.81,1005.87,2038.84,3395.83,3202.98,3502.26,350.52,343.40,10.63,0000 0000 0000 0000 000000
2015-07-23 02:31:14,0.01,0.11,0.00,23.83,27.41,29.90,4.65,23.68,1005.87,2038.92,3395.94,3202.99,3502.48,349.60,342.66,10.66,0000 0000 0000 0000 000000
2015-07-23 02:36:15,-0.01,0.11,0.00,23.83,27.40,29.88,4.78,23.76,1005.87,2038.92,3395.81,3202.98,3502.31,349.84,343.04,10.69,0000 0000 0000 0000 000000
2015-07-23 02:41:16,0.01,0.11,0.00,23.84,27.40,29.85,4.69,23.74,1005.87,2038.91,3395.81,3202.99,3502.18,350.31,343.35,10.72,0000 0000 0000 0000 000000
2015-07-23 02:46:18,0.01,0.11,0.00,23.86,27.40,29.81,4.64,23.62,1005.87,2038.96,3395.77,3202.99,3502.23,350.22,343.21,10.75,0000 0000 0000 0000 000000
2015-07-23 02:51:19,0.01,0.12,0.00,23.87,27.40,29.79,4.81,23.88,1005.88,2038.98,3395.53,3202.99,3502.12,350.61,343.36,10.78,0000 0000 0000 0000 000000
2015-07-23 02:56:20,-0.01,0.12,0.00,23.87,27.40,29.80,4.73,23.84,1005.89,2038.96,3395.45,3202.98,3502.12,349.59,342.59,10.81,0000 0000 0000 0000 000000
2015-07-23 03:01:22,-0.01,0.12,0.00,23.88,27.40,29.76,4.69,23.67,1005.89,2038.95,3395.28,3202.99,3502.19,350.37,343.36,10.84,0000 0000 0000 0000 000000
2015-07-23 03:06:23,-0.01,0.12,0.00,23.88,27.40,29.79,4.66,23.59,1005.88,2038.97,3395.58,3202.99,3502.39,349.43,342.68,10.87,0000 0000 0000 0000 000000
2015-07-23 03:11:24,-0.00,0.11,0.00,23.88,27.40,29.78,4.72,23.63,1005.88,2038.99,3395.71,3202.99,3502.46,350.29,343.30,10.90,0000 0000 0000 0000 000000
2015-07-23 03:16:25,-0.00,0.11,0.00,23.90,27.40,29.78,4.74,23.64,1005.87,2038.99,3395.71,3202.99,3502.47,349.98,343.25,10.92,0000 0000 0000 0000 000000
2015-07-23 03:21:27,0.02,0.12,0.00,23.90,27.40,29.79,4.67,23.59,1005.88,2038.99,3395.23,3202.99,3502.12,350.40,343.38,10.95,0000 0000 0000 0000 000000
2015-07-23 03:26:28,0.01,0.12,0.00,23.90,27.40,29.78,4.56,23.43,1005.89,2038.99,3395.06,3202.98,3502.05,349.10,342.23,10.98,0000 0000 0000 0000 000000
2015-07-23 03:31:29,0.00,0.12,0.00,23.92,27.40,29.77,4.67,23.51,1005.89,2038.99,3395.04,3202.98,3502.07,350.16,343.08,11.01,0000 0000 0000 0000 000000
2015-07-23 03:36:31,0.00,0.12,0.00,23.92,27.40,29.77,4.72,23.68,1005.90,2038.99,3395.01,3202.98,3502.05,349.57,342.57,11.04,0000 0000 0000 0000 000000
2015-07-23 03:41:32,0.00,0.12,0.00,23.91,27.40,29.77,4.66,23.60,1005.91,2038.99,3395.01,3202.98,3502.02,349.75,342.72,11.07,0000 0000 0000 0000 000000
2015-07-23 03:46:33,0.00,0.12,0.00,23.92,27.40,29.79,4.67,23.52,1005.93,2038.99,3395.01,3202.99,3502.04,349.69,342.95,11.10,0000 0000 0000 0000 000000
2015-07-23 03:51:34,0.00,0.12,0.00,23.93,27.40,29.78,4.69,23.43,1005.97,2038.99,3394.99,3202.98,3502.00,349.88,342.82,11.13,0000 0000 0000 0000 000000
2015-07-23 03:56:35,0.00,0.12,0.00,23.94,27.40,29.78,4.62,23.59,1006.03,2038.99,3394.98,3202.92,3502.00,349.89,342.97,11.16,0000 0000 0000 0000 000000
2015-07-23 04:01:36,0.01,0.12,0.00,23.94,27.40,29.78,4.64,23.50,1006.04,2038.99,3394.97,3202.62,3502.00,349.57,342.58,11.19,0000 0000 0000 0000 000000
2015-07-23 04:06:38,0.01,0.12,0.00,23.96,27.40,29.78,4.68,23.45,1006.23,2038.98,3394.95,3202.27,3502.00,349.89,342.97,11.22,0000 0000 0000 0000 000000
2015-07-23 04:11:39,0.00,0.12,0.00,23.96,27.40,29.79,4.67,23.51,1006.31,2038.99,3394.87,3202.17,3501.98,350.09,343.22,11.25,0000 0000 0000 0000 000000
2015-07-23 04:16:40,0.01,0.12,0.00,23.95,27.40,29.79,4.69,23.42,1006.34,2038.99,3394.55,3202.10,3501.97,349.81,342.74,11.28,0000 0000 0000 0000 000000
2015-07-23 04:21:42,0.03,0.12,0.00,23.95,27.41,29.79,4.64,23.48,1006.26,2038.99,3393.99,3202.00,3501.35,349.56,342.62,11.30,0000 0000 0000 0000 000000
2015-07-23 04:26:43,0.02,0.12,0.00,23.95,27.42,29.79,4.66,23.42,1006.18,2038.98,3393.60,3201.99,3501.02,349.50,342.52,11.33,0000 0000 0000 0000 000000
2015-07-23 04:31:44,0.01,0.12,0.00,23.96,27.42,29.79,4.68,23.44,1006.18,2038.98,3393.13,3201.98,3501.00,349.98,342.72,11.36,0000 0000 0000 0000 000000
2015-07-23 04:36:45,-0.00,0.12,0.00,23.96,27.42,29.80,4.66,23.54,1006.26,2038.97,3393.03,3201.95,3501.00,349.90,342.93,11.39,0000 0000 0000 0000 000000
2015-07-23 04:41:47,0.00,0.12,0.00,23.97,27.42,29.80,4.70,23.45,1006.30,2038.99,3393.01,3201.90,3500.99,349.82,342.89,11.42,0000 0000 0000 0000 000000
2015-07-23 04:46:48,0.00,0.12,0.00,23.95,27.42,29.81,4.71,23.48,1006.21,2038.98,3393.00,3201.71,3500.99,350.34,343.36,11.45,0000 0000 0000 0000 000000
2015-07-23 04:51:49,-0.00,0.12,0.00,23.95,27.42,29.81,4.69,23.48,1006.24,2038.98,3393.00,3201.75,3500.98,350.03,343.09,11.48,0000 0000 0000 0000 000000
2015-07-23 04:56:50,0.02,0.12,0.00,23.96,27.42,29.81,4.74,23.55,1006.30,2038.98,3392.99,3201.38,3500.94,350.34,343.50,11.51,0000 0000 0000 0000 000000
2015-07-23 05:01:52,0.03,0.12,0.00,23.97,27.42,29.82,4.70,23.49,1006.34,2038.98,3392.86,3201.09,3500.54,349.80,342.84,11.54,0000 0000 0000 0000 000000
2015-07-23 05:06:53,-0.00,0.12,0.00,23.97,27.42,29.82,4.79,23.46,1006.35,2038.99,3392.78,3201.05,3500.54,350.17,343.31,11.57,0000 0000 0000 0000 000000
2015-07-23 05:11:54,0.03,0.12,0.00,23.97,27.43,29.82,4.72,23.41,1006.35,2038.99,3392.28,3201.02,3500.23,350.25,343.22,11.60,0000 0000 0000 0000 000000
2015-07-23 05:16:55,0.00,0.12,0.00,23.97,27.44,29.83,4.72,23.42,1006.36,2038.99,3392.05,3201.01,3500.08,350.45,343.60,11.63,0000 0000 0000 0000 000000
2015-07-23 05:21:57,-0.00,0.12,0.00,23.98,27.45,29.82,4.64,23.43,1006.36,2038.98,3392.01,3201.00,3500.02,349.62,342.67,11.66,0000 0000 0000 0000 000000
2015-07-23 05:26:58,-0.00,0.12,0.00,23.99,27.45,29.83,4.66,23.40,1006.36,2038.98,3392.00,3201.00,3500.00,349.61,342.75,11.69,0000 0000 0000 0000 000000
2015-07-23 05:31:59,0.00,0.12,0.00,24.00,27.45,29.83,4.63,23.34,1006.36,2038.99,3392.00,3200.99,3500.01,350.02,343.02,11.71,0000 0000 0000 0000 000000
2015-07-23 05:37:01,-0.00,0.12,0.00,24.00,27.45,29.84,4.67,23.39,1006.36,2038.98,3391.99,3200.99,3500.00,349.41,342.51,11.74,0000 0000 0000 0000 000000
2015-07-23 05:42:02,-0.00,0.12,0.00,24.01,27.45,29.84,4.75,23.38,1006.36,2038.97,3391.98,3200.98,3499.99,349.86,342.80,11.77,0000 0000 0000 0000 000000
2015-07-23 05:47:03,0.01,0.12,0.00,24.00,27.45,29.85,4.66,23.41,1006.36,2038.99,3391.91,3200.97,3499.98,349.85,342.90,11.80,0000 0000 0000 0000 000000
2015-07-23 05:52:04,0.02,0.12,0.00,24.01,27.46,29.84,4.65,23.36,1006.36,2038.98,3391.47,3200.87,3499.86,349.11,342.20,11.83,0000 0000 0000 0000 000000
2015-07-23 05:57:05,0.02,0.12,0.00,24.00,27.47,29.84,4.71,23.48,1006.36,2038.97,3391.17,3200.64,3499.58,349.72,342.84,11.86,0000 0000 0000 0000 000000
2015-07-23 06:02:07,0.02,0.12,0.00,24.01,27.47,29.85,4.72,23.42,1006.36,2038.93,3391.01,3200.17,3499.10,349.76,342.78,11.89,0000 0000 0000 0000 000000
2015-07-23 06:07:08,-0.00,0.12,0.00,24.02,27.47,29.86,4.68,23.38,1006.36,2038.95,3391.01,3200.09,3499.07,349.49,342.50,11.92,0000 0000 0000 0000 000000
2015-07-23 06:12:09,0.01,0.12,0.00,24.02,27.47,29.85,4.76,23.47,1006.37,2038.97,3391.00,3200.06,3499.03,350.46,343.54,11.95,0000 0000 0000 0000 000000
2015-07-23 06:17:10,-0.00,0.12,0.00,24.02,27.47,29.86,4.63,23.34,1006.37,2038.97,3391.00,3200.02,3499.01,349.98,343.14,11.98,0000 0000 0000 0000 000000
2015-07-23 06:22:11,0.00,0.13,0.00,24.02,27.47,29.87,4.68,23.38,1006.40,2038.98,3391.00,3200.01,3499.00,349.82,342.87,12.01,0000 0000 0000 0000 000000
2015-07-23 06:27:13,-0.00,0.13,0.00,24.02,27.47,29.88,4.73,23.39,1006.39,2038.98,3390.98,3200.00,3499.00,350.19,343.20,12.04,0000 0000 0000 0000 000000
2015-07-23 06:32:14,0.00,0.12,0.00,24.02,27.49,29.87,4.64,23.27,1006.38,2038.96,3390.95,3200.00,3498.99,349.80,342.83,12.07,0000 0000 0000 0000 000000
2015-07-23 06:37:15,0.01,0.13,0.00,24.02,27.50,29.88,4.66,23.36,1006.39,2038.96,3390.58,3199.99,3498.94,349.72,342.58,12.10,0000 0000 0000 0000 000000
2015-07-23 06:42:17,0.02,0.13,0.00,24.02,27.50,29.87,4.66,23.32,1006.39,2038.94,3390.11,3199.93,3498.53,349.72,342.73,12.12,0000 0000 0000 0000 000000
2015-07-23 06:47:18,0.01,0.13,0.00,24.02,27.50,29.88,4.63,23.25,1006.40,2038.94,3390.01,3199.87,3498.14,349.80,342.75,12.15,0000 0000 0000 0000 000000
2015-07-23 06:52:19,0.02,0.13,0.00,24.02,27.50,29.88,4.67,23.32,1006.43,2038.93,3390.00,3199.43,3498.03,349.73,342.75,12.18,0000 0000 0000 0000 000000
2015-07-23 06:57:21,-0.00,0.13,0.00,24.03,27.50,29.89,4.72,23.48,1006.47,2038.89,3389.97,3199.19,3498.00,349.65,342.73,12.21,0000 0000 0000 0000 000000
2015-07-23 07:02:22,0.01,0.13,0.00,24.05,27.50,29.89,4.65,23.27,1006.49,2038.89,3389.92,3199.06,3498.00,350.06,343.07,12.24,0000 0000 0000 0000 000000
2015-07-23 07:07:23,0.01,0.13,0.00,24.05,27.50,29.89,4.70,23.25,1006.51,2038.94,3389.66,3199.01,3497.98,349.89,342.91,12.27,0000 0000 0000 0000 000000
2015-07-23 07:12:24,0.01,0.13,0.00,24.05,27.52,29.89,4.65,23.29,1006.60,2038.94,3389.24,3199.00,3497.96,349.97,343.02,12.30,0000 0000 0000 0000 000000
2015-07-23 07:17:25,-0.00,0.13,0.00,24.05,27.52,29.90,4.63,23.31,1006.49,2038.88,3389.01,3199.00,3497.73,349.67,342.73,12.33,0000 0000 0000 0000 000000
2015-07-23 07:22:26,0.01,0.13,0.00,24.05,27.52,29.90,4.68,23.40,1006.41,2038.87,3389.00,3199.00,3497.27,349.82,342.76,12.36,0000 0000 0000 0000 000000
2015-07-23 07:27:27,0.00,0.13,0.00,24.07,27.52,29.90,4.68,23.24,1006.45,2038.85,3388.97,3198.98,3497.03,350.09,343.06,12.39,0000 0000 0000 0000 000000
2015-07-23 07:32:29,-0.04,0.13,0.00,24.08,27.52,29.91,4.69,23.30,1006.48,2038.60,3388.63,3198.89,3497.00,350.10,342.97,12.42,0000 0000 0000 0000 000000
2015-07-23 07:37:30,0.05,0.13,0.00,24.07,27.52,29.90,4.64,23.30,1006.43,2038.65,3388.23,3198.72,3496.99,349.29,342.27,12.45,0000 0000 0000 0000 000000
2015-07-23 07:42:32,0.00,0.13,0.00,24.07,27.53,29.91,4.66,23.27,1006.43,2038.59,3388.05,3198.33,3496.97,350.18,343.14,12.48,0000 0000 0000 0000 000000
2015-07-23 07:47:33,0.00,0.13,0.00,24.10,27.54,29.93,4.70,23.29,1006.52,2038.49,3388.00,3198.05,3496.89,350.05,343.02,12.51,0000 0000 0000 0000 000000
2015-07-23 07:52:34,0.02,0.13,0.00,24.10,27.55,29.92,4.71,23.33,1006.63,2038.55,3388.00,3198.03,3496.59,349.64,342.89,12.53,0000 0000 0000 0000 000000
2015-07-23 07:57:35,-0.00,0.13,0.00,24.08,27.55,29.93,4.67,23.60,1006.66,2038.47,3387.86,3198.01,3496.20,350.18,343.23,12.56,0000 0000 0000 0000 000000
2015-07-23 08:02:37,0.02,0.13,0.00,24.08,27.55,29.93,4.69,23.31,1006.75,2038.36,3387.48,3198.00,3496.01,349.79,342.76,12.59,0000 0000 0000 0000 000000
2015-07-23 08:07:38,-0.00,0.13,0.00,24.09,27.55,29.93,4.69,23.37,1006.78,2038.48,3387.31,3198.00,3496.00,349.97,342.99,12.62,0000 0000 0000 0000 000000
2015-07-23 08:12:40,0.01,0.13,0.00,24.09,27.55,29.93,4.63,23.33,1006.82,2038.39,3387.02,3197.98,3496.00,349.98,343.00,12.65,0000 0000 0000 0000 000000
2015-07-23 08:17:41,-0.02,0.13,0.00,24.09,27.55,29.94,4.67,23.21,1006.85,2038.44,3387.00,3197.94,3495.99,349.43,342.61,12.68,0000 0000 0000 0000 000000
2015-07-23 08:22:42,0.03,0.13,0.00,24.10,27.56,29.94,4.70,23.25,1006.85,2038.38,3386.98,3197.81,3495.94,350.21,343.21,12.71,0000 0000 0000 0000 000000
2015-07-23 08:27:43,0.02,0.13,0.00,24.11,27.57,29.95,4.63,23.25,1006.85,2038.48,3386.83,3197.53,3495.64,349.35,342.51,12.74,0000 0000 0000 0000 000000
2015-07-23 08:32:45,0.03,0.13,0.00,24.11,27.57,29.94,4.62,23.19,1006.85,2038.25,3386.26,3197.08,3495.08,349.80,342.82,12.77,0000 0000 0000 0000 000000
2015-07-23 08:37:46,-0.01,0.13,0.00,24.10,27.57,29.96,4.72,23.24,1006.85,2038.21,3386.02,3197.02,3495.00,349.87,342.74,12.80,0000 0000 0000 0000 000000
2015-07-23 08:42:47,-0.01,0.13,0.00,24.10,27.57,29.96,4.70,23.40,1006.85,2038.13,3386.00,3197.00,3495.00,350.04,343.26,12.83,0000 0000 0000 0000 000000
2015-07-23 08:47:49,-0.00,0.13,0.00,24.10,27.57,29.97,4.62,23.41,1006.85,2038.10,3385.98,3197.00,3494.98,349.47,342.80,12.86,0000 0000 0000 0000 000000
2015-07-23 08:52:50,0.02,0.13,0.00,24.09,27.58,29.96,4.60,23.25,1006.85,2038.08,3385.73,3196.97,3494.75,349.19,342.00,12.89,0000 0000 0000 0000 000000
2015-07-23 08:57:51,0.02,0.13,0.00,24.10,27.59,29.96,4.69,23.54,1006.85,2038.03,3385.13,3196.92,3494.17,350.48,343.49,12.92,0000 0000 0000 0000 000000
2015-07-23 09:02:52,0.02,0.13,0.00,24.11,27.59,29.98,4.64,23.32,1006.85,2038.04,3385.00,3196.57,3494.02,350.00,343.12,12.94,0000 0000 0000 0000 000000
2015-07-23 09:07:54,0.01,0.13,0.00,24.11,27.60,29.97,4.68,23.35,1006.85,2038.03,3384.99,3196.15,3494.00,349.84,342.74,12.97,0000 0000 0000 0000 000000
2015-07-23 09:12:55,0.01,0.13,0.00,24.11,27.60,29.98,4.65,23.41,1006.86,2038.04,3384.94,3196.06,3493.99,350.14,343.25,13.00,0000 0000 0000 0000 000000
2015-07-23 09:17:56,0.02,0.13,0.00,24.12,27.60,29.98,4.68,23.38,1006.86,2038.01,3384.48,3196.00,3493.89,350.04,343.11,13.03,0000 0000 0000 0000 000000
2015-07-23 09:22:57,0.03,0.14,0.00,24.11,27.60,29.97,4.71,23.31,1006.87,2038.01,3384.05,3196.00,3493.37,350.16,343.23,13.06,0000 0000 0000 0000 000000
2015-07-23 09:27:59,0.01,0.14,0.00,24.12,27.60,29.98,4.62,23.24,1006.88,2038.03,3383.99,3195.96,3493.01,349.65,342.73,13.09,0000 0000 0000 0000 000000
2015-07-23 09:33:00,0.01,0.14,0.00,24.12,27.60,29.99,4.66,23.18,1006.92,2038.02,3383.82,3195.89,3493.00,349.65,342.92,13.12,0000 0000 0000 0000 000000
2015-07-23 09:38:01,0.03,0.14,0.00,24.12,27.60,29.98,4.67,23.32,1006.97,2038.02,3383.22,3195.48,3492.99,350.20,343.29,13.15,0000 0000 0000 0000 000000
2015-07-23 09:43:02,0.01,0.14,0.00,24.12,27.61,30.00,4.69,23.34,1007.10,2038.01,3383.02,3195.16,3492.94,349.33,342.47,13.18,0000 0000 0000 0000 000000
2015-07-23 09:48:04,0.01,0.14,0.00,24.12,27.62,29.99,4.69,23.26,1007.24,2038.01,3383.00,3195.05,3492.68,349.97,343.16,13.21,0000 0000 0000 0000 000000
2015-07-23 09:53:05,0.01,0.14,0.00,24.12,27.62,30.00,4.64,23.32,1007.30,2038.00,3382.98,3195.00,3492.12,349.89,342.94,13.24,0000 0000 0000 0000 000000
2015-07-23 09:58:07,0.02,0.14,0.00,24.12,27.62,30.00,4.64,23.48,1007.33,2038.01,3382.60,3195.00,3492.02,349.39,342.68,13.27,0000 0000 0000 0000 000000
2015-07-23 10:03:08,0.00,0.14,0.00,24.12,27.62,30.00,4.68,23.17,1007.34,2038.00,3382.06,3194.99,3492.00,350.08,343.26,13.30,0000 0000 0000 0000 000000
2015-07-23 10:08:09,0.00,0.14,0.00,24.12,27.62,30.01,4.67,23.30,1007.34,2038.00,3382.01,3194.98,3492.00,349.63,342.82,13.32,0000 0000 0000 0000 000000
2015-07-23 10:13:11,0.00,0.14,0.00,24.12,27.62,30.01,4.67,23.14,1007.34,2038.01,3382.00,3194.99,3492.00,349.72,342.79,13.35,0000 0000 0000 0000 000000
2015-07-23 10:18:12,0.02,0.14,0.00,24.12,27.62,30.01,4.66,23.32,1007.34,2038.02,3381.99,3194.78,3491.83,349.58,342.80,13.38,0000 0000 0000 0000 000000
2015-07-23 10:23:13,0.04,0.14,0.00,24.12,27.62,30.01,4.63,23.13,1007.34,2038.00,3381.79,3194.19,3491.19,350.00,343.12,13.41,0000 0000 0000 0000 000000
2015-07-23 10:28:15,0.02,0.14,0.00,24.12,27.63,30.01,4.66,23.27,1007.34,2038.00,3381.26,3194.06,3491.07,349.63,343.05,13.44,0000 0000 0000 0000 000000
2015-07-23 10:33:16,0.00,0.14,0.00,24.12,27.63,30.02,4.73,23.29,1007.34,2038.02,3381.07,3194.04,3491.01,349.84,342.98,13.47,0000 0000 0000 0000 000000
2015-07-23 10:38:18,0.00,0.14,0.00,24.12,27.64,30.02,4.63,23.27,1007.35,2038.01,3381.00,3194.00,3491.00,349.34,342.68,13.50,0000 0000 0000 0000 000000
2015-07-23 10:43:19,0.00,0.14,0.00,24.14,27.65,30.02,4.64,23.29,1007.35,2038.01,3380.99,3194.00,3490.97,349.57,342.65,13.53,0000 0000 0000 0000 000000
2015-07-23 10:48:21,0.01,0.14,0.00,24.14,27.65,30.02,4.68,23.20,1007.34,2038.00,3380.81,3193.99,3490.81,349.46,342.80,13.56,0000 0000 0000 0000 000000
2015-07-23 10:53:22,0.03,0.14,0.00,24.13,27.65,30.02,4.69,23.22,1007.35,2038.00,3380.33,3193.96,3490.35,350.19,343.40,13.59,0000 0000 0000 0000 000000
2015-07-23 10:58:23,0.02,0.14,0.00,24.13,27.65,30.03,4.68,23.49,1007.36,2038.00,3380.02,3193.63,3490.03,349.85,343.03,13.62,0000 0000 0000 0000 000000
2015-07-23 11:03:24,0.01,0.14,0.00,24.12,27.65,30.02,4.65,23.23,1007.36,2038.00,3380.00,3193.32,3490.00,349.74,342.63,13.65,0000 0000 0000 0000 000000
2015-07-23 11:08:25,0.00,0.14,0.00,24.12,27.65,30.02,4.68,23.23,1007.42,2038.00,3380.00,3193.17,3490.00,349.97,343.38,13.68,0000 0000 0000 0000 000000
2015-07-23 11:13:26,0.00,0.14,0.00,24.12,27.65,30.03,4.64,23.16,1007.50,2038.00,3379.96,3193.03,3489.96,350.37,343.63,13.71,0000 0000 0000 0000 000000
2015-07-23 11:18:28,0.00,0.14,0.00,24.12,27.65,30.03,4.66,23.38,1007.48,2038.00,3379.91,3193.04,3489.98,349.88,343.08,13.74,0000 0000 0000 0000 000000
2015-07-23 11:23:29,0.01,0.15,0.00,24.12,27.65,30.04,4.69,23.24,1007.42,2038.00,3379.51,3193.01,3489.88,350.12,343.39,13.76,0000 0000 0000 0000 000000
2015-07-23 11:28:30,0.02,0.15,0.00,24.12,27.65,30.03,4.63,23.16,1007.41,2038.00,3379.13,3193.00,3489.45,349.81,343.08,13.79,0000 0000 0000 0000 000000
2015-07-23 11:33:31,0.00,0.15,0.00,24.12,27.65,30.04,4.74,23.23,1007.42,2038.00,3379.01,3193.00,3489.10,350.14,343.43,13.82,0000 0000 0000 0000 000000
2015-07-23 11:38:32,0.00,0.15,0.00,24.14,27.66,30.04,4.64,23.23,1007.45,2038.00,3379.00,3193.00,3489.05,349.55,342.69,13.85,0000 0000 0000 0000 000000
2015-07-23 11:43:34,0.00,0.15,0.00,24.13,27.67,30.05,4.65,23.20,1007.44,2038.00,3379.00,3193.00,3489.01,349.99,343.36,13.88,0000 0000 0000 0000 000000
2015-07-23 11:48:35,0.00,0.15,0.00,24.13,27.67,30.04,4.67,23.25,1007.36,2038.00,3378.97,3192.96,3489.00,349.78,342.95,13.91,0000 0000 0000 0000 000000
2015-07-23 11:53:36,0.01,0.15,0.00,24.14,27.67,30.06,4.67,23.24,1007.36,2038.00,3378.78,3192.89,3488.99,349.61,342.77,13.94,0000 0000 0000 0000 000000
2015-07-23 11:58:37,0.03,0.15,0.00,24.12,27.67,30.04,4.69,23.48,1007.35,2038.00,3378.35,3192.72,3488.98,349.48,342.73,13.97,0000 0000 0000 0000 000000
2015-07-23 12:03:39,0.00,0.15,0.00,24.12,27.67,30.06,4.76,23.36,1007.34,2038.00,3378.06,3192.45,3488.92,350.39,343.62,14.00,0000 0000 0000 0000 000000
2015-07-23 12:08:40,0.04,0.15,0.00,24.12,27.67,30.06,4.73,23.25,1007.36,2038.00,3378.01,3192.06,3488.22,350.50,343.81,14.03,0000 0000 0000 0000 000000
2015-07-23 12:13:41,0.00,0.15,0.00,24.13,27.67,30.06,4.64,23.25,1007.39,2038.00,3377.99,3192.00,3488.04,349.64,342.87,14.06,0000 0000 0000 0000 000000
2015-07-23 12:18:43,0.01,0.15,0.00,24.13,27.67,30.06,4.65,23.26,1007.47,2038.00,3377.81,3192.00,3488.00,349.80,343.02,14.09,0000 0000 0000 0000 000000
2015-07-23 12:23:44,0.01,0.15,0.00,24.14,27.67,30.05,4.67,23.18,1007.57,2038.00,3377.23,3191.99,3487.99,349.86,343.16,14.12,0000 0000 0000 0000 000000
2015-07-23 12:28:45,0.00,0.15,0.00,24.14,27.67,30.05,4.70,23.19,1007.74,2037.99,3377.05,3191.94,3487.96,350.36,343.85,14.14,0000 0000 0000 0000 000000
2015-07-23 12:33:46,0.01,0.15,0.00,24.13,27.67,30.06,4.64,23.16,1007.79,2037.99,3377.00,3191.89,3487.84,349.22,342.60,14.17,0000 0000 0000 0000 000000
2015-07-23 12:38:47,0.02,0.15,0.00,24.14,27.67,30.06,4.72,23.20,1007.79,2037.99,3376.99,3191.60,3487.33,349.80,343.10,14.20,0000 0000 0000 0000 000000
2015-07-23 12:43:48,0.02,0.15,0.00,24.14,27.67,30.06,4.67,23.25,1007.73,2037.99,3376.97,3191.16,3487.05,349.97,343.28,14.23,0000 0000 0000 0000 000000
2015-07-23 12:48:50,0.01,0.15,0.00,24.15,27.68,30.06,4.70,23.23,1007.72,2037.99,3376.91,3191.07,3487.01,350.24,343.40,14.26,0000 0000 0000 0000 000000
2015-07-23 12:53:51,0.01,0.15,0.00,24.15,27.68,30.06,4.72,23.20,1007.64,2037.99,3376.67,3191.03,3487.00,349.75,343.02,14.29,0000 0000 0000 0000 000000
2015-07-23 12:58:53,0.01,0.15,0.00,24.14,27.68,30.06,4.73,23.36,1007.61,2037.99,3376.07,3191.01,3486.98,350.42,343.81,14.32,0000 0000 0000 0000 000000